Location: Boiro
(42.6475°N, 8.8834°W)
Time: 07:17:16
(UTC+02:00)

EO-79 - Visible Passes

Search period start: 10 August 2022 00:00
Search period end: 20 August 2022 00:00
Orbit: 588 x 603 km, 98.0° (Epoch: 09 August)

Date Brightness Start Highest point End Pass type
(mag) Time Alt. Az. Time Alt. Az. Time Alt. Az.
10 Aug ? 03:13:52 10° ENE 03:14:49 12° ENE 03:14:49 12° ENE visible
10 Aug ? 04:47:53 10° N 04:51:28 48° NW 04:51:28 48° NW visible
11 Aug ? 03:23:06 10° NE 03:24:37 15° ENE 03:24:37 15° ENE visible
11 Aug ? 04:57:46 10° N 05:01:17 39° NW 05:01:17 39° NW visible
12 Aug ? 03:32:29 10° NE 03:34:26 19° ENE 03:34:26 19° ENE visible
12 Aug ? 05:07:42 10° N 05:11:05 31° WNW 05:11:05 31° WNW visible
13 Aug ? 03:42:00 10° NE 03:44:14 23° ENE 03:44:14 23° ENE visible
13 Aug ? 05:17:40 10° NNW 05:20:53 25° WNW 05:20:53 25° WNW visible
14 Aug ? 03:51:34 10° NNE 03:54:02 27° ENE 03:54:02 27° ENE visible
14 Aug ? 05:27:42 10° NNW 05:30:41 21° WNW 05:30:41 21° WNW visible
15 Aug ? 04:01:12 10° NNE 04:03:49 32° NE 04:03:49 32° NE visible
15 Aug ? 05:37:49 10° NNW 05:40:28 17° WNW 05:40:28 17° WNW visible
16 Aug ? 04:10:53 10° NNE 04:13:37 37° NE 04:13:37 37° NE visible
16 Aug ? 05:48:06 10° NNW 05:50:09 13° WNW 05:50:16 13° WNW visible
17 Aug ? 04:20:36 10° NNE 04:23:24 41° NNE 04:23:24 41° NNE visible
17 Aug ? 05:58:49 10° NW 05:59:47 11° WNW 06:00:03 11° WNW visible
18 Aug ? 04:30:21 10° N 04:33:10 42° N 04:33:10 42° N visible
19 Aug ? 04:40:08 10° N 04:42:57 40° N 04:42:57 40° N visible
